Time,TemperatureF,DewpointF,PressureIn,WindDirection,WindDirectionDegrees,WindSpeedMPH,WindSpeedGustMPH,Humidity,HourlyPrecipIn,Conditions,Clouds,dailyrainin,SolarRadiationWatts/m^2,SoftwareType,DateUTC
2013-03-03 00:08:00,30.6,19.0,29.90,West,259,0.0,2.0,63,0.00,,,0.00,0,weatherlink.com 1.10,2013-03-03 05:08:00,
2013-03-03 00:23:00,30.2,19.0,29.89,West,259,0.0,1.0,64,0.00,,,0.00,0,weatherlink.com 1.10,2013-03-03 05:23:00,
2013-03-03 00:38:00,30.0,19.0,29.89,WNW,297,0.0,2.0,64,0.00,,,0.00,0,weatherlink.com 1.10,2013-03-03 05:38:00,
2013-03-03 00:53:00,29.6,19.0,29.89,WNW,297,0.0,1.0,65,0.00,,,0.00,0,weatherlink.com 1.10,2013-03-03 05:53:00,
2013-03-03 01:08:00,29.1,19.0,29.89,WNW,297,0.0,1.0,65,0.00,,,0.00,0,weatherlink.com 1.10,2013-03-03 06:08:00,
2013-03-03 01:23:00,28.8,19.0,29.89,WNW,297,0.0,0.0,66,0.00,,,0.00,0,weatherlink.com 1.10,2013-03-03 06:23:00,
2013-03-03 01:38:00,28.6,19.0,29.89,WNW,297,0.0,1.0,67,0.00,,,0.00,0,weatherlink.com 1.10,2013-03-03 06:38:00,
2013-03-03 01:53:00,28.4,19.0,29.89,WNW,297,0.0,2.0,68,0.00,,,0.00,0,weatherlink.com 1.10,2013-03-03 06:53:00,
2013-03-03 02:08:00,28.3,19.0,29.88,WNW,297,0.0,1.0,68,0.00,,,0.00,0,weatherlink.com 1.10,2013-03-03 07:08:00,
2013-03-03 02:23:00,28.5,19.0,29.88,West,260,0.0,2.0,68,0.00,,,0.00,0,weatherlink.com 1.10,2013-03-03 07:23:00,
2013-03-03 02:38:00,29.2,19.0,29.88,NNW,330,0.0,3.0,67,0.00,,,0.00,0,weatherlink.com 1.10,2013-03-03 07:38:00,
2013-03-03 02:53:00,29.3,20.0,29.88,WNW,300,0.0,5.0,67,0.00,,,0.00,0,weatherlink.com 1.10,2013-03-03 07:53:00,
2013-03-03 03:08:00,29.0,20.0,29.87,WNW,300,0.0,1.0,68,0.00,,,0.00,0,weatherlink.com 1.10,2013-03-03 08:08:00,
2013-03-03 03:23:00,28.9,20.0,29.87,WNW,300,0.0,0.0,68,0.00,,,0.00,0,weatherlink.com 1.10,2013-03-03 08:23:00,
2013-03-03 03:38:00,28.7,19.0,29.87,WNW,300,0.0,2.0,68,0.00,,,0.00,0,weatherlink.com 1.10,2013-03-03 08:38:00,
2013-03-03 03:53:00,28.4,19.0,29.87,WNW,300,0.0,1.0,68,0.00,,,0.00,0,weatherlink.com 1.10,2013-03-03 08:53:00,
2013-03-03 04:08:00,28.3,19.0,29.87,WNW,300,0.0,1.0,69,0.00,,,0.00,0,weatherlink.com 1.10,2013-03-03 09:08:00,
2013-03-03 04:38:00,28.7,20.0,29.88,NW,308,0.0,3.0,69,0.00,,,0.00,0,weatherlink.com 1.10,2013-03-03 09:38:00,
2013-03-03 04:53:00,29.3,20.0,29.88,WNW,286,2.0,3.0,68,0.00,,,0.00,0,weatherlink.com 1.10,2013-03-03 09:53:00,
2013-03-03 05:08:00,29.9,20.0,29.88,NW,309,1.0,5.0,67,0.00,,,0.00,0,weatherlink.com 1.10,2013-03-03 10:08:00,
2013-03-03 05:23:00,30.2,20.0,29.89,NW,311,0.0,5.0,66,0.00,,,0.00,0,weatherlink.com 1.10,2013-03-03 10:23:00,
2013-03-03 05:38:00,30.4,20.0,29.89,NNW,329,4.0,6.0,65,0.00,,,0.00,0,weatherlink.com 1.10,2013-03-03 10:38:00,
2013-03-03 05:53:00,30.5,20.0,29.89,WNW,300,0.0,5.0,65,0.00,,,0.00,0,weatherlink.com 1.10,2013-03-03 10:53:00,
2013-03-03 06:08:00,30.6,20.0,29.90,NNW,334,1.0,5.0,65,0.00,,,0.00,0,weatherlink.com 1.10,2013-03-03 11:08:00,
2013-03-03 06:23:00,30.4,20.0,29.90,NW,313,0.0,5.0,65,0.00,,,0.00,0,weatherlink.com 1.10,2013-03-03 11:23:00,
2013-03-03 06:38:00,30.3,20.0,29.90,WNW,295,0.0,2.0,66,0.00,,,0.00,0,weatherlink.com 1.10,2013-03-03 11:38:00,
2013-03-03 06:54:00,30.3,20.0,29.90,NW,307,0.0,3.0,66,0.00,,,0.00,9,weatherlink.com 1.10,2013-03-03 11:54:00,
2013-03-03 07:09:00,30.4,20.0,29.91,NW,316,0.0,3.0,65,0.00,,,0.00,26,weatherlink.com 1.10,2013-03-03 12:09:00,
2013-03-03 07:24:00,30.7,20.0,29.91,NW,306,0.0,5.0,65,0.00,,,0.00,53,weatherlink.com 1.10,2013-03-03 12:24:00,
2013-03-03 07:39:00,31.0,20.0,29.91,NW,304,4.0,4.0,65,0.00,,,0.00,65,weatherlink.com 1.10,2013-03-03 12:39:00,
2013-03-03 07:54:00,32.0,20.0,29.91,WNW,296,0.0,5.0,62,0.00,,,0.00,200,weatherlink.com 1.10,2013-03-03 12:54:00,
2013-03-03 08:09:00,32.8,20.0,29.92,NW,322,2.0,10.0,60,0.00,,,0.00,246,weatherlink.com 1.10,2013-03-03 13:09:00,
2013-03-03 08:24:00,33.8,20.0,29.92,NW,320,4.0,12.0,57,0.00,,,0.00,306,weatherlink.com 1.10,2013-03-03 13:24:00,
2013-03-03 08:39:00,34.1,20.0,29.92,WSW,257,2.0,9.0,56,0.00,,,0.00,355,weatherlink.com 1.10,2013-03-03 13:39:00,
2013-03-03 08:54:00,35.6,21.0,29.92,NNW,327,5.0,7.0,55,0.00,,,0.00,404,weatherlink.com 1.10,2013-03-03 13:54:00,
2013-03-03 09:09:00,35.3,20.0,29.92,WNW,296,0.0,11.0,55,0.00,,,0.00,445,weatherlink.com 1.10,2013-03-03 14:09:00,
2013-03-03 09:24:00,36.5,21.0,29.92,NW,309,8.0,13.0,53,0.00,,,0.00,497,weatherlink.com 1.10,2013-03-03 14:24:00,
2013-03-03 09:39:00,36.5,21.0,29.92,NNW,348,7.0,10.0,54,0.00,,,0.00,541,weatherlink.com 1.10,2013-03-03 14:39:00,
2013-03-03 09:54:00,37.6,22.0,29.91,NW,309,5.0,10.0,54,0.00,,,0.00,587,weatherlink.com 1.10,2013-03-03 14:54:00,
2013-03-03 10:09:00,37.9,21.0,29.91,ENE,69,3.0,8.0,51,0.00,,,0.00,629,weatherlink.com 1.10,2013-03-03 15:09:00,
2013-03-03 10:24:00,38.3,21.0,29.91,West,262,0.0,10.0,51,0.00,,,0.00,689,weatherlink.com 1.10,2013-03-03 15:24:00,
2013-03-03 10:39:00,38.0,21.0,29.91,North,351,5.0,10.0,51,0.00,,,0.00,731,weatherlink.com 1.10,2013-03-03 15:39:00,
2013-03-03 10:55:00,39.8,22.0,29.90,North,350,1.0,8.0,49,0.00,,,0.00,782,weatherlink.com 1.10,2013-03-03 15:55:00,
2013-03-03 11:10:00,39.7,22.0,29.90,NNW,328,3.0,10.0,49,0.00,,,0.00,793,weatherlink.com 1.10,2013-03-03 16:10:00,
2013-03-03 11:25:00,39.7,21.0,29.90,North,5,3.0,10.0,48,0.00,,,0.00,842,weatherlink.com 1.10,2013-03-03 16:25:00,
2013-03-03 11:40:00,41.2,23.0,29.90,NW,314,2.0,11.0,48,0.00,,,0.00,870,weatherlink.com 1.10,2013-03-03 16:40:00,
2013-03-03 11:55:00,41.8,22.0,29.89,WSW,255,4.0,9.0,46,0.00,,,0.00,893,weatherlink.com 1.10,2013-03-03 16:55:00,
2013-03-03 12:10:00,40.7,22.0,29.89,North,5,5.0,8.0,47,0.00,,,0.00,306,weatherlink.com 1.10,2013-03-03 17:10:00,
2013-03-03 12:25:00,40.5,22.0,29.89,WNW,291,3.0,9.0,48,0.00,,,0.00,318,weatherlink.com 1.10,2013-03-03 17:25:00,
2013-03-03 12:40:00,41.5,22.0,29.87,NNW,347,2.0,10.0,46,0.00,,,0.00,1062,weatherlink.com 1.10,2013-03-03 17:40:00,
2013-03-03 12:55:00,41.8,22.0,29.87,NNE,30,0.0,13.0,45,0.00,,,0.00,295,weatherlink.com 1.10,2013-03-03 17:55:00,
2013-03-03 13:10:00,41.9,22.0,29.86,WNW,294,3.0,12.0,45,0.00,,,0.00,888,weatherlink.com 1.10,2013-03-03 18:10:00,
2013-03-03 13:25:00,43.5,24.0,29.85,NW,314,4.0,15.0,46,0.00,,,0.00,911,weatherlink.com 1.10,2013-03-03 18:25:00,
2013-03-03 13:40:00,44.0,24.0,29.84,WSW,251,5.0,9.0,45,0.00,,,0.00,810,weatherlink.com 1.10,2013-03-03 18:40:00,
2013-03-03 13:55:00,42.9,23.0,29.84,NNE,15,0.0,10.0,46,0.00,,,0.00,847,weatherlink.com 1.10,2013-03-03 18:55:00,
2013-03-03 14:10:00,44.1,23.0,29.83,NW,313,3.0,9.0,44,0.00,,,0.00,782,weatherlink.com 1.10,2013-03-03 19:10:00,
2013-03-03 14:25:00,44.6,24.0,29.83,NW,321,5.0,10.0,45,0.00,,,0.00,659,weatherlink.com 1.10,2013-03-03 19:25:00,
2013-03-03 14:40:00,44.5,23.0,29.82,NNW,341,1.0,9.0,43,0.00,,,0.00,671,weatherlink.com 1.10,2013-03-03 19:40:00,
2013-03-03 14:55:00,45.4,24.0,29.82,NW,314,4.0,12.0,43,0.00,,,0.00,642,weatherlink.com 1.10,2013-03-03 19:55:00,
2013-03-03 15:10:00,45.0,23.0,29.82,NNE,18,2.0,9.0,42,0.00,,,0.00,594,weatherlink.com 1.10,2013-03-03 20:10:00,
2013-03-03 15:25:00,45.6,24.0,29.82,SW,227,12.0,13.0,43,0.00,,,0.00,547,weatherlink.com 1.10,2013-03-03 20:25:00,
2013-03-03 15:40:00,45.5,22.0,29.82,West,262,3.0,13.0,40,0.00,,,0.00,527,weatherlink.com 1.10,2013-03-03 20:40:00,
2013-03-03 15:55:00,45.2,23.0,29.83,SW,228,6.0,10.0,42,0.00,,,0.00,165,weatherlink.com 1.10,2013-03-03 20:55:00,
2013-03-03 16:10:00,45.0,23.0,29.83,NW,314,4.0,15.0,42,0.00,,,0.00,411,weatherlink.com 1.10,2013-03-03 21:10:00,
2013-03-03 16:25:00,45.5,23.0,29.83,NW,306,10.0,10.0,42,0.00,,,0.00,366,weatherlink.com 1.10,2013-03-03 21:25:00,
2013-03-03 16:40:00,44.1,23.0,29.83,NNW,327,3.0,12.0,44,0.00,,,0.00,311,weatherlink.com 1.10,2013-03-03 21:40:00,
2013-03-03 16:55:00,44.0,23.0,29.84,NW,317,5.0,15.0,44,0.00,,,0.00,250,weatherlink.com 1.10,2013-03-03 21:55:00,
2013-03-03 17:10:00,42.9,23.0,29.84,West,263,10.0,16.0,45,0.00,,,0.00,190,weatherlink.com 1.10,2013-03-03 22:10:00,
2013-03-03 17:25:00,42.3,23.0,29.85,NW,326,0.0,10.0,46,0.00,,,0.00,135,weatherlink.com 1.10,2013-03-03 22:25:00,
2013-03-03 17:40:00,41.5,22.0,29.86,NNW,327,0.0,11.0,46,0.00,,,0.00,79,weatherlink.com 1.10,2013-03-03 22:40:00,
2013-03-03 17:55:00,40.6,22.0,29.87,WNW,298,1.0,9.0,48,0.00,,,0.00,16,weatherlink.com 1.10,2013-03-03 22:55:00,
2013-03-03 18:10:00,39.7,22.0,29.88,WNW,282,2.0,10.0,49,0.00,,,0.00,5,weatherlink.com 1.10,2013-03-03 23:10:00,
2013-03-03 18:25:00,38.9,22.0,29.88,NNW,340,6.0,11.0,50,0.00,,,0.00,0,weatherlink.com 1.10,2013-03-03 23:25:00,
2013-03-03 18:40:00,37.8,21.0,29.89,WNW,296,5.0,7.0,51,0.00,,,0.00,0,weatherlink.com 1.10,2013-03-03 23:40:00,
2013-03-03 18:55:00,36.8,20.0,29.90,NW,314,4.0,12.0,51,0.00,,,0.00,0,weatherlink.com 1.10,2013-03-03 23:55:00,
2013-03-03 19:10:00,36.2,20.0,29.91,NW,315,1.0,9.0,52,0.00,,,0.00,0,weatherlink.com 1.10,2013-03-04 00:10:00,
2013-03-03 19:25:00,35.7,20.0,29.91,North,360,8.0,10.0,53,0.00,,,0.00,0,weatherlink.com 1.10,2013-03-04 00:25:00,
2013-03-03 19:41:00,35.2,20.0,29.92,SSE,159,0.0,6.0,54,0.00,,,0.00,0,weatherlink.com 1.10,2013-03-04 00:41:00,
2013-03-03 19:55:00,34.6,19.0,29.93,NW,319,5.0,13.0,53,0.00,,,0.00,0,weatherlink.com 1.10,2013-03-04 00:55:00,
2013-03-03 20:10:00,34.4,19.0,29.93,West,259,1.0,9.0,54,0.00,,,0.00,0,weatherlink.com 1.10,2013-03-04 01:10:00,
2013-03-03 20:25:00,33.9,19.0,29.93,North,355,5.0,8.0,55,0.00,,,0.00,0,weatherlink.com 1.10,2013-03-04 01:25:00,
2013-03-03 20:40:00,33.6,19.0,29.93,NNW,327,0.0,6.0,55,0.00,,,0.00,0,weatherlink.com 1.10,2013-03-04 01:40:00,
2013-03-03 20:55:00,33.3,19.0,29.94,NNW,342,1.0,10.0,55,0.00,,,0.00,0,weatherlink.com 1.10,2013-03-04 01:55:00,
2013-03-03 21:10:00,33.0,18.0,29.95,WSW,254,2.0,8.0,55,0.00,,,0.00,0,weatherlink.com 1.10,2013-03-04 02:10:00,
2013-03-03 21:25:00,32.6,18.0,29.95,NNW,348,0.0,9.0,56,0.00,,,0.00,0,weatherlink.com 1.10,2013-03-04 02:25:00,
2013-03-03 21:40:00,32.3,18.0,29.96,WNW,282,6.0,6.0,56,0.00,,,0.00,0,weatherlink.com 1.10,2013-03-04 02:40:00,
2013-03-03 21:55:00,31.9,18.0,29.96,NNW,337,2.0,7.0,56,0.00,,,0.00,0,weatherlink.com 1.10,2013-03-04 02:55:00,
2013-03-03 22:10:00,31.7,17.0,29.96,North,355,3.0,5.0,56,0.00,,,0.00,0,weatherlink.com 1.10,2013-03-04 03:10:00,
2013-03-03 22:26:00,31.3,18.0,29.96,NW,309,0.0,6.0,57,0.00,,,0.00,0,weatherlink.com 1.10,2013-03-04 03:26:00,
2013-03-03 22:41:00,31.1,17.0,29.97,NW,323,0.0,3.0,57,0.00,,,0.00,0,weatherlink.com 1.10,2013-03-04 03:41:00,
2013-03-03 22:56:00,30.6,17.0,29.96,NNW,333,0.0,5.0,58,0.00,,,0.00,0,weatherlink.com 1.10,2013-03-04 03:56:00,
2013-03-03 23:11:00,30.2,17.0,29.96,NNW,338,0.0,3.0,58,0.00,,,0.00,0,weatherlink.com 1.10,2013-03-04 04:11:00,
2013-03-03 23:26:00,29.7,17.0,29.96,NW,312,0.0,6.0,59,0.00,,,0.00,0,weatherlink.com 1.10,2013-03-04 04:26:00,
2013-03-03 23:41:00,29.4,17.0,29.96,NW,311,0.0,3.0,60,0.00,,,0.00,0,weatherlink.com 1.10,2013-03-04 04:41:00,
2013-03-03 23:56:00,29.2,17.0,29.96,NW,306,0.0,4.0,60,0.00,,,0.00,0,weatherlink.com 1.10,2013-03-04 04:56:00,